Flag for France Weather past 2 weeks in Tours, France

Now
63 °F

Passing clouds.


Feels Like: 63 °F
Forecast: 61 / 76 °F
Wind: 7 mph from South

Location: Tours Airport

Current Time: Aug 2, 2014 at 9:20:36 AM

Latest Report: Aug 2, 2014 at 9:00 AM


Visibility: N/A

Pressure: 29.77 "Hg

Humidity: 77%

Dew point: 55 °F

Location of ToursLocation

Historic Weather in Tours — Graph

°F

Tours temperature yesterday

Maximum temperature yesterday: 82 °F (at 2:00 PM)
Minimum temperature yesterday: 61 °F (at 5:00 AM)
Average temperature yesterday: 71 °F

Past Weeks' High & Low Weather Summary

 TemperatureHumidityPressure
High90 °F (Jul 18, 5:00 PM)100% (Jul 20, 7:30 AM)30.15 "Hg (Jul 20, 7:30 AM)
Low55 °F (Jul 29, 6:30 AM)29% (Jul 24, 7:00 PM)29.74 "Hg (Jul 19, 3:00 AM)
Average71 °F69%29.95 "Hg
* Reported Jul 18 8:00 AM — Aug 2 8:00 AM, Tours, Weather by CustomWeather, © 2014

Note: Actual official high and low records may vary slightly from our data, if they occured in-between our weather recording intervals... More about our weather records

Advertising

Tours weather history for previous 24 hours

 ConditionsComfort  
Time TempWeatherWind HumidityBarometerVisibility
8:00 AM
Aug 2
61 °FSunny.5 mph83%29.77 "Hg10 mi
7:30 AM59 °FClear.6 mph88%29.77 "Hg10 mi
7:00 AM59 °FClear.5 mph88%29.77 "Hg10 mi
6:30 AM61 °FPassing clouds.5 mph83%29.74 "HgN/A
6:00 AM61 °FClear.5 mph83%29.74 "Hg10 mi
5:30 AM61 °FClear.7 mph83%29.74 "Hg10 mi
5:00 AM61 °FClear.8 mph83%29.74 "Hg10 mi
4:30 AM61 °FClear.8 mph83%29.74 "HgN/A
4:00 AM61 °FClear.8 mph83%29.77 "HgN/A
3:30 AM61 °FClear.7 mph83%29.77 "HgN/A
3:00 AM63 °FClear.8 mph73%29.77 "HgN/A
2:30 AM63 °FClear.10 mph73%29.77 "HgN/A
2:00 AM64 °FPassing clouds.7 mph68%29.77 "HgN/A
1:30 AM64 °FClear.6 mph73%29.77 "Hg10 mi
1:00 AM64 °FClear.7 mph68%29.77 "Hg10 mi
12:30 AM66 °FClear.7 mph68%29.77 "Hg10 mi
12:00 AM68 °FClear.7 mph64%29.77 "Hg10 mi
11:30 PM
Aug 1
68 °FClear.9 mph69%29.77 "Hg10 mi
11:00 PM70 °FClear.12 mph64%29.77 "Hg10 mi
10:30 PM72 °FSunny.10 mph61%29.77 "Hg10 mi
10:00 PM72 °FSunny.8 mph57%29.77 "Hg10 mi
9:30 PM73 °FPassing clouds.8 mph50%29.77 "HgN/A
9:00 PM75 °FSunny.10 mph47%29.74 "Hg10 mi
8:30 PM77 °FPassing clouds.9 mph44%29.74 "HgN/A
8:00 PM79 °FPassing clouds.12 mph42%29.74 "HgN/A
7:30 PM79 °FClear.9 mph42%29.74 "HgN/A
7:00 PM81 °FClear.12 mph42%29.74 "HgN/A
6:30 PM79 °FClear.12 mph45%29.77 "HgN/A
6:00 PM81 °FClear.13 mph45%29.77 "HgN/A
5:30 PM79 °FClear.10 mph48%29.77 "HgN/A
5:00 PM81 °FClear.12 mph45%29.77 "HgN/A
4:30 PM81 °FScattered clouds.14 mph45%29.77 "HgN/A
4:00 PM82 °FPartly sunny.13 mph42%29.77 "HgN/A
3:30 PM81 °FClear.12 mph45%29.77 "HgN/A
3:00 PM81 °FPartly sunny.10 mph45%29.80 "HgN/A
2:30 PM81 °FClear.12 mph45%29.80 "Hg6 mi
2:00 PM82 °FBroken clouds.12 mph42%29.80 "HgN/A
1:30 PM81 °FBroken clouds.10 mph48%29.80 "HgN/A
1:00 PM79 °FClear.12 mph48%29.80 "Hg6 mi
12:30 PM77 °FClear.10 mph54%29.83 "HgN/A
12:00 PM77 °FClear.7 mph57%29.83 "HgN/A
11:30 AM73 °FClear.6 mph65%29.83 "HgN/A
11:00 AM72 °FClear.5 mph69%29.83 "HgN/A
10:30 AM72 °FClear.5 mph69%29.83 "HgN/A
10:00 AM68 °FMild.5 mph78%29.86 "HgN/A
9:30 AM66 °FClear.8 mph83%29.86 "HgN/A
9:00 AM64 °FClear.6 mph83%29.86 "HgN/A
Weather by CustomWeather, © 2014

See weather overviewHow to use our weather pages